Miami, FL

9:14 PM EST on December 15, 2019 (GMT -0500)
Miami International

Weather History for KMIA - October, 2019

Change the Weather History Date:

Wednesday, October 2, 2019

  Actual Average Record
Temperature  
Mean Temperature 83 °F 82 °F  
Max Temperature 88 °F 88 °F 94 °F (1989)
Min Temperature 78 °F 76 °F 59 °F (1920)
Degree Days  
Heating Degree Days 0 0  
Month to date heating degree days 0 0  
Since 1 July heating degree days 0 0  
Cooling Degree Days 18 17  
Month to date cooling degree days 37 34  
Year to date cooling degree days 4128 3646  
Growing Degree Days 33 (Base 50)    
Moisture  
Dew Point 73 °F    
Average Humidity 73    
Maximum Humidity 85    
Minimum Humidity 61    
Precipitation  
Precipitation 0.45 in 0.28 in 5.53 in (2013)
Month to date precipitation 0.47 0.56  
Year to date precipitation 55.64 50.82  
Snow  
Snow 0.00 in - - ()
Month to date snowfall 0.0  
Since 1 July snowfall 0.0  
Since 1 September snowfall 0.0  
Snow Depth 0.00 in    
Sea Level Pressure  
Sea Level Pressure 29.89 in    
Wind  
Wind Speed 12 mph (ENE)    
Max Wind Speed 23 mph    
Max Gust Speed 29 mph    
Visibility 9 miles    
Events Rain    
T = Trace of Precipitation, MM = Missing Value Source: NWS Daily Summary

Daily Weather History Graph

Daily Weather History Graph

Search for Another Location

Airport or City:

Astronomy

Oct. 02, 2019 Rise Set
Actual Time 7:13 AM EDT 7:06 PM EDT
Civil Twilight 6:50 AM EDT 7:29 PM EDT
Nautical Twilight 6:24 AM EDT 7:56 PM EDT
Astronomical Twilight 5:57 AM EDT 8:23 PM EDT
Moon 11:14 AM EDT (10/2) 10:24 PM EDT (10/2)
Length of Visible Light 12h 39m
Length of Day
11h 53m
Waxing Crescent, 20% of the Moon is Illuminated
Oct 2
Waxing Crescent
Oct 5
First Quarter
Oct 13
Full
Oct 21
Last Quarter
Oct 27
New

Hourly Weather History & Observations

Time (EDT) Temp. Heat Index Dew Point Humidity Pressure Visibility Wind Dir Wind Speed Gust Speed Precip Events Conditions
12:53 AM 78.1 °F - 71.1 °F 79% 29.89 in 9.0 mi East 11.5 mph 23.0 mph 0.00 in Rain Light Rain
1:53 AM 81.0 °F 85.2 °F 72.0 °F 74% 29.88 in 10.0 mi East 12.7 mph - 0.00 in   Mostly Cloudy
2:53 AM 82.0 °F 86.7 °F 72.0 °F 71% 29.86 in 10.0 mi East 10.4 mph - N/A   Mostly Cloudy
3:53 AM 81.0 °F 84.4 °F 70.0 °F 69% 29.85 in 10.0 mi East 13.8 mph - N/A   Scattered Clouds
4:53 AM 80.1 °F 83.6 °F 71.1 °F 74% 29.84 in 10.0 mi East 10.4 mph - N/A   Scattered Clouds
5:53 AM 80.1 °F 83.8 °F 72.0 °F 76% 29.85 in 10.0 mi ENE 10.4 mph - N/A   Scattered Clouds
6:53 AM 81.0 °F 85.2 °F 72.0 °F 74% 29.86 in 10.0 mi ENE 6.9 mph - N/A   Scattered Clouds
6:59 AM 81.0 °F 85.2 °F 72.0 °F 74% 29.86 in 6.0 mi ENE 3.5 mph - 0.01 in Rain Light Rain
7:37 AM 81.0 °F 84.9 °F 71.1 °F 72% 29.88 in 10.0 mi ENE 6.9 mph - 0.01 in   Scattered Clouds
7:53 AM 81.0 °F 84.9 °F 71.1 °F 72% 29.88 in 10.0 mi ENE 6.9 mph - 0.01 in   Partly Cloudy
8:53 AM 82.9 °F 88.0 °F 72.0 °F 69% 29.90 in 10.0 mi ENE 10.4 mph - N/A   Scattered Clouds
9:53 AM 84.9 °F 90.7 °F 72.0 °F 65% 29.91 in 10.0 mi ENE 11.5 mph - N/A   Mostly Cloudy
10:07 AM 84.0 °F 89.6 °F 72.0 °F 67% 29.91 in 10.0 mi ENE 11.5 mph - N/A   Mostly Cloudy
10:33 AM 79.0 °F - 73.9 °F 84% 29.93 in 1.5 mi East 17.3 mph 26.5 mph 0.04 in Rain Heavy Rain
10:43 AM 78.1 °F - 73.0 °F 84% 29.92 in 7.0 mi ENE 10.4 mph 20.7 mph 0.36 in Rain Heavy Rain
10:53 AM 80.1 °F 85.1 °F 75.0 °F 85% 29.93 in 7.0 mi NE 10.4 mph - 0.36 in   Mostly Cloudy
11:04 AM 82.9 °F 90.2 °F 75.0 °F 77% 29.92 in 10.0 mi NE 8.1 mph - 0.00 in Rain Light Rain
11:53 AM 84.0 °F 90.2 °F 73.0 °F 69% 29.91 in 10.0 mi ENE 16.1 mph 23.0 mph 0.00 in   Mostly Cloudy
12:53 PM 87.1 °F 94.5 °F 73.0 °F 63% 29.91 in 10.0 mi East 20.7 mph 24.2 mph N/A   Mostly Cloudy
1:53 PM 86.0 °F 92.2 °F 72.0 °F 63% 29.89 in 10.0 mi ENE 15.0 mph 21.9 mph N/A   Mostly Cloudy
2:53 PM 87.1 °F 94.5 °F 73.0 °F 63% 29.88 in 10.0 mi ENE 17.3 mph 24.2 mph N/A   Mostly Cloudy
3:49 PM 82.4 °F 88.2 °F 73.4 °F 74% 29.87 in 10.0 mi NE 11.5 mph - 0.01 in   Scattered Clouds
3:53 PM 84.0 °F 91.2 °F 73.9 °F 72% 29.88 in 10.0 mi ENE 6.9 mph - 0.01 in   Scattered Clouds
4:53 PM 82.0 °F 88.6 °F 75.0 °F 79% 29.87 in 9.0 mi NE 10.4 mph - 0.01 in Rain Light Rain
5:53 PM 84.0 °F 91.2 °F 73.9 °F 72% 29.87 in 10.0 mi East 15.0 mph - 0.00 in   Mostly Cloudy
6:53 PM 82.9 °F 89.4 °F 73.9 °F 74% 29.87 in 10.0 mi East 17.3 mph 21.9 mph 0.00 in   Scattered Clouds
7:53 PM 82.0 °F 87.4 °F 73.0 °F 74% 29.89 in 10.0 mi ENE 11.5 mph - N/A   Mostly Cloudy
8:53 PM 81.0 °F 86.2 °F 73.9 °F 79% 29.91 in 10.0 mi East 11.5 mph - 0.06 in   Scattered Clouds
9:53 PM 81.0 °F 85.8 °F 73.0 °F 77% 29.93 in 10.0 mi East 12.7 mph - 0.00 in   Scattered Clouds
10:53 PM 82.0 °F 86.7 °F 72.0 °F 71% 29.93 in 10.0 mi East 10.4 mph - N/A   Partly Cloudy
11:53 PM 80.1 °F 83.8 °F 72.0 °F 76% 29.94 in 10.0 mi East 6.9 mph - N/A   Mostly Cloudy